EHI
8 6 3 1 0 0 0 0 0 0 0 0 0 0 0 0 0 0 0 0 0 0 0 1 3 3 3 3 4 4 4 3 3 3 3 3 3 2 2 3 3 2 1 1 0 0 0 0 1
6 5 2 0 0 0 0 0 0 0 0 0 0 0 0 0 0 0 0 0 0 0 1 2 3 3 3 3 3 4 3 3 3 3 3 3 3 3 2 2 2 1 2 2 1 0 0 1 2
4 3 1 0 0 0 0 0 0 0 0 0 0 0 0 0 0 0 0 0 0 0 1 2 3 3 3 3 3 3 3 3 3 3 3 3 3 3 3 2 1 1 3 3 1 0 0 2 3
2 1 0 0 0 0 0 0 0 0 0 0 0 0 0 0 0 0 0 0 0 0 0 1 2 3 3 3 3 3 3 3 3 3 3 3 3 3 2 2 1 2 3 3 2 1 1 4 5
1 0 0 0 0 0 0 0 0 0 0 0 0 0 0 0 0 0 0 0 0 0 0 0 1 2 2 2 2 2 2 2 2 2 2 2 2 1 1 1 0 1 2 2 1 1 2 4 5
0 0 0 0 0 0 0 0 0 0 0 0 0 0 0 0 0 0 0 0 0 0 0 0 0 1 1 1 1 1 1 1 1 1 1 1 1 0 0 0 0 0 1 1 0 1 2 3 2
0 0 0 0 0 0 0 0 0 0 0 0 0 0 0 0 0 0 0 0 0 0 0 0 0 0 0 0 0 0 0 0 0 0 0 0 0 0 0 0 0 0 0 0 0 0 1 1 1
0 0 0 0 0 0 0 0 0 0 0 0 0 0 0 0 0 0 0 0 0 0 0 0 0 0 0 0 0 0 0 0 0 0 0 0 0 0 0 0 0 0 0 0 0 0 0 0 0
0 0 0 0 0 0 0 0 0 0 0 0 0 0 0 0 0 0 0 0 0 0 0 0 0 0 0 0 0 0 0 0 0 0 0 0 0 0 0 0 0 0 0 0 0 0 0 0 0
0 0 0 0 0 0 0 0 0 0 0 0 0 0 0 0 0 0 0 0 0 0 0 0 0 0 0 0 0 0 0 0 0 0 0 0 0 0 0 0 0 0 0 0 0 0 0 0 0
0 0 0 0 0 0 0 0 0 0 0 0 0 0 0 0 0 0 0 0 0 0 0 0 0 0 0 0 0 0 0 0 0 0 0 0 0 0 0 0 0 0 0 0 0 0 0 0 0
0 0 0 0 0 0 0 0 0 0 0 0 0 0 0 0 0 0 0 0 0 0 0 0 0 0 0 0 0 0 0 0 0 0 0 0 0 0 0 0 0 0 0 0 0 0 0 0 0
0 0 0 0 0 0 0 0 0 0 0 0 0 0 0 0 0 0 0 0 0 0 0 0 0 0 0 0 0 0 0 0 0 0 0 0 0 0 0 0 0 0 0 0 0 0 0 0 0
0 0 0 0 0 0 0 0 0 0 0 0 0 0 0 0 0 0 0 0 0 0 0 0 0 0 0 0 0 0 0 0 0 0 0 0 0 0 0 0 0 0 0 0 0 0 0 0 0
0 0 0 0 0 0 0 0 0 0 0 0 0 0 0 0 0 0 0 0 0 0 0 0 0 0 0 0 0 0 0 0 0 0 0 0 0 0 0 0 0 0 0 0 0 0 0 0 0
0 0 0 0 0 0 0 0 0 0 0 0 0 0 0 0 0 0 0 0 0 0 0 0 0 0 0 0 0 0 0 0 0 0 0 0 0 0 0 0 0 0 0 0 0 0 0 0 0
0 0 0 0 0 0 0 0 0 0 0 0 0 0 0 0 0 0 0 0 0 0 0 0 0 0 0 0 0 0 0 0 0 0 0 0 0 0 0 0 0 0 0 0 0 0 0 0 0
0 0 0 0 0 0 0 0 0 0 0 0 0 0 0 0 0 0 0 0 0 0 0 0 0 0 0 0 0 0 0 0 0 0 0 0 0 0 0 0 0 0 0 0 0 0 0 0 0
0 0 0 0 0 0 0 0 0 0 0 0 0 0 0 0 0 0 0 0 0 0 0 0 0 0 0 0 0 0 0 0 0 0 0 0 0 0 0 0 0 0 0 0 0 0 0 0 0
0 0 0 0 0 0 0 0 0 0 0 0 0 0 0 0 0 0 0 0 0 0 0 0 0 0 0 0 0 0 0 0 0 0 0 0 0 0 0 0 0 0 0 0 0 0 0 0 0
0 0 0 0 0 0 0 0 0 0 0 0 0 0 0 0 0 0 0 0 0 0 0 0 0 0 0 0 0 0 0 0 0 0 0 0 0 0 0 0 0 0 0 0 0 0 0 0 0
0 0 0 0 0 0 0 0 0 0 0 0 0 0 0 0 0 0 0 0 0 0 0 0 0 0 0 0 0 0 0 0 0 0 0 0 0 0 0 0 0 0 0 0 0 0 0 0 0
0 0 0 0 0 0 0 0 0 0 0 0 0 0 0 0 0 0 0 0 0 0 0 0 0 0 0 0 0 0 0 0 0 0 0 0 0 0 0 0 0 0 0 0 0 0 0 0 0
0 0 0 0 0 0 0 0 0 0 0 0 0 0 0 0 0 0 0 0 0 0 0 0 0 0 0 0 0 0 0 0 0 0 0 0 0 0 0 0 0 0 0 0 0 0 0 0 0
0 0 0 0 0 0 0 0 0 0 0 0 0 0 0 0 0 0 0 0 0 0 0 0 0 0 0 0 0 0 0 0 0 0 0 0 0 0 0 0 0 0 0 0 0 0 0 0 0
0 0 0 0 0 0 0 0 0 0 0 0 0 0 0 0 0 0 0 0 0 0 0 0 0 0 0 0 0 0 0 0 0 0 0 0 0 0 0 0 0 0 0 0 0 0 0 0 0
0 0 0 0 0 0 0 0 0 0 0 0 0 0 0 0 0 0 0 0 0 0 0 0 0 0 0 0 0 0 0 0 0 0 0 0 0 0 0 0 0 0 0 0 0 0 0 0 0
0 0 0 0 0 0 0 0 0 0 0 0 0 0 0 0 0 0 0 0 0 0 0 0 0 0 0 0 0 0 0 0 0 0 0 0 0 0 0 0 0 0 0 0 0 0 0 0 0
0 0 0 0 0 0 0 0 0 0 0 0 0 0 0 0 0 0 0 0 0 0 0 0 0 0 0 0 0 0 0 0 0 0 0 0 0 0 0 0 0 0 0 0 0 0 0 0 0
0 0 0 0 0 0 0 0 0 0 0 0 0 0 0 0 0 0 0 0 0 0 0 0 0 0 0 0 0 0 0 0 0 0 0 0 0 0 0 0 0 0 0 0 0 0 0 0 0
Wind_Speed
3 4 3 3 5 5 2 1 1 2 3 2 5 6 6 4 2 3 0 1 3 3 2 4 9 10 10 10 10 10 10 10 9 9 9 9 9 8 8 8 8 8 8 8 8 7 8 7 7
3 2 4 4 4 3 1 1 2 1 5 5 5 5 6 4 3 4 1 2 4 4 3 5 8 10 10 9 9 9 9 9 9 9 9 9 8 8 8 8 8 8 8 8 8 7 7 7 7
2 2 4 4 3 3 2 1 3 4 4 3 4 5 4 3 3 2 2 4 5 4 4 4 9 9 9 9 9 9 9 8 8 8 8 8 8 8 8 7 7 7 7 7 7 7 7 7 7
3 4 4 4 3 0 2 3 4 5 4 4 4 5 4 2 2 3 5 5 6 4 3 4 9 9 9 8 8 8 8 8 8 8 8 8 8 8 7 7 7 7 7 7 7 6 6 6 7
4 4 5 3 2 1 2 3 2 3 3 3 4 5 3 4 5 6 5 5 5 4 3 3 8 8 8 7 7 7 7 7 7 8 8 7 7 7 7 7 7 7 7 7 7 7 6 7 7
4 4 4 2 2 2 2 2 3 5 5 4 4 5 3 2 5 5 5 5 4 4 3 3 6 7 7 6 7 7 7 7 7 6 6 6 6 6 6 6 6 7 8 8 8 8 7 7 8
4 4 3 3 2 1 2 2 3 5 5 3 4 5 2 1 2 4 5 5 4 3 3 3 3 3 5 5 6 6 6 6 6 6 6 6 6 6 6 6 6 7 7 8 8 8 8 8 8
4 4 3 2 2 1 2 2 3 4 4 3 3 6 5 4 4 5 5 4 3 3 3 2 3 3 3 3 5 6 6 6 6 6 6 7 7 7 7 6 6 6 7 8 8 8 8 8 8
3 5 2 2 3 2 2 3 2 3 5 3 2 3 5 8 7 6 4 3 2 2 2 2 2 2 2 2 4 5 6 7 7 6 7 6 4 4 5 6 7 7 8 8 9 8 9 9 8
4 3 2 2 3 4 3 3 3 4 4 3 5 5 8 8 8 6 4 3 2 1 0 1 1 1 2 2 3 3 3 4 4 3 4 3 3 3 5 7 8 8 8 8 9 9 9 7 4
3 3 1 1 3 5 4 2 2 6 3 5 9 10 9 8 7 6 4 3 3 2 1 1 1 1 2 2 2 2 2 2 3 3 3 3 3 3 3 3 4 5 6 5 6 6 4 4 3
3 2 2 2 3 4 4 3 3 2 3 5 8 11 9 8 7 6 5 4 3 2 2 1 2 1 2 2 2 2 2 2 2 2 3 2 2 3 3 2 3 3 2 3 3 3 4 4 4
3 2 3 4 5 5 5 4 3 2 4 7 9 9 8 7 5 4 4 3 3 3 3 2 2 2 2 2 1 2 2 2 2 2 2 2 2 2 2 2 2 3 3 3 3 3 4 5 5
2 4 4 3 4 3 5 3 3 3 6 8 8 8 7 6 5 4 4 4 3 4 4 3 3 3 3 2 2 1 1 2 2 2 2 3 2 2 2 2 3 3 3 3 3 4 4 4 4
4 5 5 3 3 3 4 3 2 4 7 7 6 6 5 4 4 5 6 5 5 4 4 4 4 3 3 3 2 2 2 2 2 2 3 3 3 3 3 2 3 2 3 3 3 4 4 4 4
3 4 2 2 2 2 4 1 2 5 8 6 5 5 5 4 5 5 5 5 5 4 4 4 4 4 4 3 2 2 2 3 2 2 2 3 3 3 3 3 3 2 3 3 3 3 4 4 4
3 2 1 1 1 2 3 3 2 5 7 6 5 5 5 4 4 4 5 5 5 5 5 4 4 5 4 3 3 3 3 3 2 2 3 3 4 4 3 3 2 3 3 3 3 3 3 3 4
3 3 2 1 1 3 3 2 1 4 6 6 5 5 5 5 7 5 5 5 5 5 5 5 4 4 4 3 3 3 3 3 2 2 2 3 3 3 3 3 3 3 3 3 3 4 4 3 3
5 4 2 1 1 2 2 3 3 4 4 5 5 5 6 7 5 3 4 4 4 4 5 5 5 4 4 2 2 2 1 1 2 2 3 3 3 3 3 3 3 3 3 3 3 3 4 3 2
4 4 2 1 1 2 2 3 3 4 6 7 7 8 8 6 4 4 5 5 6 6 6 5 5 5 4 3 2 2 2 1 1 1 2 3 3 2 3 3 3 3 3 4 3 3 2 2 3
2 4 3 3 2 3 2 3 3 3 3 4 5 6 6 8 8 6 7 7 6 7 7 7 6 6 5 4 3 3 3 2 2 2 1 2 2 2 3 3 3 3 3 3 2 2 3 2 2
1 2 4 4 3 0 1 2 5 4 4 6 7 7 7 8 7 7 7 8 8 8 6 6 6 5 5 5 4 4 3 2 1 1 0 1 2 2 2 3 3 3 2 2 2 2 2 3 1
3 3 4 3 3 1 0 1 6 2 5 8 9 9 9 8 8 8 9 9 8 7 6 6 5 5 5 5 5 4 3 2 1 1 1 1 2 2 2 2 3 3 2 2 2 3 3 2 2
5 6 5 4 3 0 3 3 6 5 8 7 8 8 8 7 7 7 6 6 5 5 5 5 6 5 5 5 5 5 5 4 3 1 1 0 1 1 1 2 2 2 2 2 2 2 3 2 2
4 5 3 3 2 3 2 3 7 7 7 9 9 9 8 7 6 6 6 6 6 6 7 6 7 6 5 6 5 6 6 5 5 3 3 2 1 0 0 1 1 1 1 2 2 2 2 2 2
2 5 5 3 2 3 1 4 7 5 4 4 5 6 6 7 7 7 8 8 7 8 7 7 7 6 6 6 6 5 5 4 3 4 3 3 2 2 1 2 2 1 2 2 2 2 1 1 2
4 2 3 4 1 1 4 5 7 2 2 1 3 4 5 7 7 7 6 7 7 7 8 9 8 7 6 6 5 5 5 4 4 4 3 2 2 2 2 2 2 1 2 2 2 2 1 2 1
4 6 4 4 3 1 4 3 4 4 2 1 3 5 5 5 6 5 5 6 6 6 6 6 6 6 5 5 5 4 4 4 4 3 4 3 3 2 3 2 2 2 2 2 2 2 1 2 1
3 3 4 3 3 3 2 5 4 4 3 4 4 4 5 6 6 6 5 5 4 4 5 5 5 5 4 5 4 4 4 3 3 3 4 4 3 3 3 3 3 2 2 2 2 2 2 2 1
4 4 6 4 3 3 2 6 4 3 3 3 3 3 4 6 5 5 4 4 4 4 5 5 5 5 5 5 5 4 4 4 3 3 3 3 3 3 3 3 3 3 2 2 3 2 2 2 1
Wind_Direction
88 93 85 65 60 56 54 9 78 75 70 62 74 80 87 72 81 123 240 123 116 106 91 99 100 100 96 93 90 88 87 85 84 81 81 81 81 80 78 73 68 68 69 68 65 65 68 69 69
102 99 62 61 79 78 30 356 90 95 133 129 78 72 76 71 66 98 103 123 113 107 89 97 103 99 96 93 92 88 84 84 83 82 81 80 80 80 78 73 67 64 64 63 61 63 65 68 68
102 63 78 70 86 134 150 159 125 96 101 97 82 59 74 91 104 119 142 128 105 95 85 100 106 100 96 93 91 89 85 82 82 81 80 78 77 75 72 70 66 62 60 59 58 58 63 65 66
82 49 57 69 79 116 156 150 133 119 85 57 93 76 61 43 123 132 127 119 109 97 88 106 109 104 98 94 90 86 83 80 79 79 78 77 73 71 68 64 61 57 54 55 56 57 62 67 69
63 77 66 60 55 45 91 125 124 108 87 74 93 91 59 16 94 112 117 116 113 101 90 104 111 108 103 95 90 86 84 80 76 73 72 70 67 65 61 60 57 52 51 52 50 54 63 69 72
58 66 82 98 72 56 68 95 104 92 97 93 92 96 69 67 107 121 118 110 109 104 84 78 99 103 102 93 87 84 80 76 73 68 66 61 57 55 53 52 52 51 51 52 51 54 61 68 74
97 89 112 132 116 91 114 96 106 113 106 111 111 100 100 118 133 120 104 98 92 86 78 55 53 66 83 87 84 81 74 67 61 55 53 50 47 44 43 43 46 53 53 53 55 58 57 67 75
115 97 90 113 131 128 101 86 92 107 107 101 104 129 158 179 130 100 87 79 76 70 66 59 47 44 39 38 63 66 61 54 49 44 41 41 36 30 30 31 40 51 55 55 58 58 60 68 74
83 79 128 178 161 150 123 102 77 72 99 79 74 127 146 132 117 105 89 72 73 82 51 55 55 44 42 26 48 45 43 38 37 29 30 37 27 17 16 18 36 44 49 50 54 57 63 67 67
76 114 191 194 166 145 128 113 128 104 92 93 88 88 113 122 130 133 138 143 147 153 53 80 68 49 40 37 45 31 29 27 29 27 26 32 31 21 27 19 31 38 43 45 51 56 59 60 52
90 142 153 98 131 130 122 108 107 125 146 167 152 146 138 137 142 151 160 163 179 196 215 171 140 65 64 50 46 34 25 22 23 27 29 39 41 29 29 24 20 23 34 36 40 48 48 53 55
92 65 117 116 108 112 126 120 102 136 178 158 149 146 145 151 161 168 168 172 171 182 213 189 141 101 70 72 52 43 30 25 25 22 35 54 54 42 30 31 20 27 28 40 45 53 54 57 58
78 86 61 84 91 98 102 102 112 99 106 118 129 138 151 160 169 172 170 169 167 184 193 187 152 131 100 81 62 64 41 37 38 33 40 66 71 57 38 29 31 32 38 48 52 59 59 55 53
113 94 80 70 77 73 99 91 94 121 119 126 140 153 162 170 171 165 172 179 185 189 185 173 149 141 121 102 81 65 49 46 52 47 48 67 79 78 61 46 39 35 41 48 59 63 66 59 57
97 85 53 32 64 90 94 61 133 151 136 143 157 163 166 178 179 185 188 187 190 185 170 162 152 131 121 113 93 74 54 60 58 50 53 69 79 82 82 66 51 38 48 59 62 58 61 63 59
67 72 61 353 58 89 113 181 179 149 147 162 174 175 181 198 203 205 194 184 183 171 160 166 151 132 128 117 101 79 61 60 54 50 54 65 74 81 81 73 55 46 59 64 71 63 66 58 56
48 100 118 336 47 121 135 193 179 156 161 176 187 189 194 208 219 216 193 183 179 172 160 151 139 140 136 119 99 81 68 59 48 48 51 56 66 71 78 73 59 60 68 61 73 62 74 73 63
177 148 145 217 238 126 138 204 181 163 175 190 194 195 202 212 221 212 193 180 173 165 153 144 139 139 127 107 88 69 57 46 39 40 47 59 68 78 83 77 63 66 73 63 67 73 63 70 69
146 136 144 234 198 133 178 218 216 176 184 199 202 201 209 222 227 202 184 170 161 159 156 155 149 152 142 125 114 101 76 40 31 28 41 56 72 84 86 85 72 70 79 80 85 88 70 49 36
127 125 134 71 103 135 172 255 247 193 205 206 202 207 211 216 205 193 184 177 178 177 175 170 167 166 167 151 137 132 127 102 75 28 37 43 63 76 92 93 88 81 87 76 72 85 89 47 32
134 161 173 155 76 63 86 317 268 234 214 215 213 211 210 208 204 196 186 188 185 186 186 183 181 174 171 150 114 91 69 49 36 22 15 14 46 66 82 95 97 86 88 92 81 87 106 102 38
183 178 154 133 114 308 129 275 274 233 229 223 220 213 215 215 204 193 187 190 196 199 188 184 182 176 169 154 149 147 148 160 199 185 45 26 42 66 85 100 101 96 90 92 86 86 99 116 96
162 114 113 120 125 82 61 201 278 217 229 233 223 217 216 212 203 196 195 197 199 193 184 183 176 176 170 166 165 155 151 160 144 108 88 49 32 41 81 103 105 102 97 99 91 85 83 96 119
118 83 66 59 80 290 222 189 269 225 216 222 217 214 211 205 202 198 196 190 189 185 181 176 174 183 176 174 172 171 170 164 152 152 150 64 24 20 64 110 111 114 110 108 105 98 95 93 97
90 90 50 12 15 263 232 207 253 245 225 213 210 210 206 194 191 187 184 185 187 186 188 183 181 189 184 181 185 187 183 178 182 185 182 182 202 232 213 134 136 131 130 121 112 99 95 104 109
152 136 154 181 215 285 283 238 260 270 254 217 201 197 190 189 189 188 191 190 191 192 190 185 188 193 186 188 193 189 185 183 190 188 183 191 199 206 182 150 146 143 136 126 118 101 101 102 106
137 167 163 129 151 295 281 284 302 337 7 124 159 168 186 193 190 188 188 189 193 193 192 189 188 191 190 190 185 186 188 187 189 185 182 185 197 192 167 150 142 138 134 133 125 111 110 106 100
141 145 114 123 145 265 295 284 269 299 298 228 189 192 197 193 190 186 187 191 194 194 188 180 181 187 185 181 182 184 186 187 179 166 176 183 186 171 156 148 142 142 133 128 122 114 111 105 85
130 133 131 126 151 163 266 279 242 237 237 222 223 206 195 189 187 184 186 186 183 174 166 168 175 175 172 175 173 168 175 171 162 170 183 181 172 167 167 163 156 158 149 141 135 133 125 114 85
163 170 154 154 193 175 183 270 282 248 242 219 215 203 191 186 182 176 171 163 161 168 169 173 175 175 179 172 163 168 163 156 163 181 184 170 167 168 169 159 159 168 162 154 155 160 148 147 141